Location: St. Louis
(38.6270°N, 90.1994°W)
Time: 12:23:20
(UTC-06:00)

A-11 Canister half - Pass Details

Date: 13 December 2021
Orbit: 1524 x 1684 km, 47.3° (Epoch: 25 January)

Event Time Altitude Azimuth Distance (km) Brightness Sun altitude
Rises 21:19:11 0° 211° (SSW) 4,849 11.8 -53.5°
Enters shadow 21:21:12 - 209° (SSW) 4,241 11.4 -53.9°
Reaches altitude 10° 21:22:25 10° 206° (SSW) 3,883 - -54.1°
Maximum altitude 21:31:52 50° 135° (SE) 2,056 - -55.9°
Drops below altitude 10° 21:41:28 10° 65° (ENE) 3,951 - -57.7°
Sets 21:44:46 0° 60° (ENE) 4,939 - -58.3°
